Tavèrnoles





Hora UTC 08:05
Temperatura -0.8 ºC
Humedad 96.0 %
Presión 1026.9 hPa
Pluja 0.0 mm
Velocidad viento 0.0 km/h
Dirección viento S
Radiación solar 53.0 W/m²

Datos diarios 2020-02-20



Hora UTC (invierno +1h; verano +2h)
Temperatura (ºC) Humedad (%) Presión (hPa) Velocidad viento (km/h) Precipitación (mm) Radiación solar (W/m²)
Hora UTC Aire Humedad Presión Vel. Dir. Vel. Max Dir. Intent. máx 5 min. Rad. Sol.
00:05 0.7 94.0 1028.3 0.0 S 0.0 0.0 0.0
00:05 0.7 94.0 1028.3 0.0 S 3.2 0.0 0.0
00:15 0.5 94.0 1028.2 0.0 S 1.6 0.0 0.0
00:20 0.3 94.0 1028.2 0.0 S 1.6 0.0 0.0
00:25 0.3 94.0 1028.0 0.0 S 0.0 0.0 0.0
00:30 0.2 94.0 1028.0 0.0 S 0.0 0.0 0.0
00:35 0.1 94.0 1028.1 0.0 S 0.0 0.0 0.0
00:40 0.2 94.0 1028.1 0.0 S 0.0 0.0 0.0
00:45 0.1 94.0 1028.1 0.0 S 1.6 0.0 0.0
00:50 0.2 94.0 1028.1 0.0 S 1.6 0.0 0.0
00:55 0.1 94.0 1028.2 0.0 S 3.2 0.0 0.0
01:00 -0.1 94.0 1028.2 0.0 S 3.2 0.0 0.0
01:05 -0.1 94.0 1028.1 0.0 S 0.0 0.0 0.0
01:05 -0.1 94.0 1028.0 0.0 S 0.0 0.0 0.0
01:15 -0.1 95.0 1027.8 0.0 S 0.0 0.0 0.0
01:20 0.0 95.0 1027.7 0.0 S 0.0 0.0 0.0
01:25 0.1 95.0 1027.7 0.0 S 0.0 0.0 0.0
01:30 0.2 95.0 1027.7 0.0 S 0.0 0.0 0.0
01:35 0.2 95.0 1027.6 0.0 S 0.0 0.0 0.0
01:40 0.2 95.0 1027.6 0.0 S 0.0 0.0 0.0
01:45 0.1 95.0 1027.5 0.0 S 0.0 0.0 0.0
01:50 -0.1 94.0 1027.4 0.0 S 0.0 0.0 0.0
01:55 -0.2 94.0 1027.5 0.0 S 0.0 0.0 0.0
02:00 -0.2 95.0 1027.3 0.0 S 0.0 0.0 0.0
02:05 -0.2 95.0 1027.4 0.0 S 0.0 0.0 0.0
02:05 -0.2 95.0 1027.3 0.0 S 0.0 0.0 0.0
02:15 -0.5 94.0 1027.3 0.0 S 0.0 0.0 0.0
02:20 -0.5 95.0 1027.2 0.0 S 0.0 0.0 0.0
02:25 -0.6 95.0 1027.1 0.0 S 0.0 0.0 0.0
02:30 -0.6 95.0 1027.1 0.0 S 0.0 0.0 0.0
02:35 -0.6 95.0 1027.1 0.0 S 0.0 0.0 0.0
02:40 -0.7 95.0 1027.1 0.0 S 0.0 0.0 0.0
02:45 -0.8 95.0 1027.0 0.0 S 0.0 0.0 0.0
02:50 -0.8 95.0 1027.1 0.0 S 0.0 0.0 0.0
02:55 -0.9 95.0 1027.0 0.0 S 0.0 0.0 0.0
03:00 -0.9 95.0 1026.9 0.0 S 0.0 0.0 0.0
03:05 -1.0 95.0 1026.9 0.0 S 0.0 0.0 0.0
03:05 -1.1 95.0 1026.9 0.0 S 0.0 0.0 0.0
03:15 -1.1 95.0 1026.8 0.0 S 3.2 0.0 0.0
03:20 -1.1 95.0 1026.8 0.0 S 3.2 0.0 0.0
03:25 -1.1 95.0 1026.7 0.0 S 1.6 0.0 0.0
03:30 -1.1 95.0 1026.7 0.0 S 0.0 0.0 0.0
03:35 -1.1 95.0 1026.7 0.0 S 0.0 0.0 0.0
03:40 -1.1 95.0 1026.7 0.0 S 0.0 0.0 0.0
03:45 -1.1 95.0 1026.7 0.0 S 0.0 0.0 0.0
03:50 -1.1 95.0 1026.7 0.0 S 0.0 0.0 0.0
03:55 -1.1 95.0 1026.6 0.0 S 1.6 0.0 0.0
04:00 -1.1 95.0 1026.6 0.0 S 1.6 0.0 0.0
04:05 -1.2 95.0 1026.7 0.0 S 0.0 0.0 0.0
04:05 -1.2 95.0 1026.7 0.0 S 0.0 0.0 0.0
04:15 -1.4 95.0 1026.6 0.0 S 0.0 0.0 0.0
04:20 -1.4 95.0 1026.6 0.0 S 0.0 0.0 0.0
04:25 -1.4 95.0 1026.6 0.0 S 0.0 0.0 0.0
04:30 -1.4 95.0 1026.6 0.0 S 0.0 0.0 0.0
04:35 -1.6 95.0 1026.6 0.0 S 0.0 0.0 0.0
04:40 -1.6 95.0 1026.7 0.0 S 0.0 0.0 0.0
04:45 -1.6 95.0 1026.7 0.0 S 0.0 0.0 0.0
04:50 -1.6 95.0 1026.7 0.0 S 0.0 0.0 0.0
04:55 -1.4 95.0 1026.6 0.0 S 0.0 0.0 0.0
05:00 -1.5 95.0 1026.7 0.0 S 0.0 0.0 0.0
05:05 -1.6 95.0 1026.7 0.0 S 0.0 0.0 0.0
05:05 -1.6 95.0 1026.6 0.0 S 0.0 0.0 0.0
05:15 -1.6 95.0 1026.6 0.0 S 0.0 0.0 0.0
05:20 -1.6 95.0 1026.6 0.0 S 0.0 0.0 0.0
05:25 -1.6 95.0 1026.6 0.0 S 0.0 0.0 0.0
05:30 -1.6 95.0 1026.6 0.0 S 0.0 0.0 0.0
05:35 -1.6 95.0 1026.4 0.0 S 1.6 0.0 0.0
05:40 -1.6 95.0 1026.4 0.0 S 1.6 0.0 0.0
05:45 -1.6 95.0 1026.4 0.0 S 0.0 0.0 0.0
05:50 -1.6 95.0 1026.5 0.0 S 0.0 0.0 0.0
05:55 -1.7 95.0 1026.5 0.0 S 0.0 0.0 0.0
06:00 -1.7 95.0 1026.5 0.0 S 0.0 0.0 0.0
06:05 -1.8 95.0 1026.4 0.0 S 0.0 0.0 0.0
06:05 -1.7 95.0 1026.4 0.0 S 0.0 0.0 0.0
06:15 -1.8 95.0 1026.4 0.0 S 0.0 0.0 0.0
06:20 -1.8 95.0 1026.4 0.0 S 0.0 0.0 0.0
06:25 -1.8 95.0 1026.4 0.0 S 1.6 0.0 0.0
06:30 -1.7 95.0 1026.4 0.0 S 1.6 0.0 0.0
06:35 -1.7 95.0 1026.4 0.0 S 0.0 0.0 0.0
06:40 -1.7 95.0 1026.3 0.0 S 0.0 0.0 0.0
06:45 -1.7 95.0 1026.4 0.0 S 0.0 0.0 0.0
06:50 -1.7 95.0 1026.4 0.0 S 0.0 0.0 5.0
06:55 -1.7 95.0 1026.5 0.0 S 0.0 0.0 9.0
07:00 -1.7 95.0 1026.5 0.0 S 0.0 0.0 12.0
07:05 -1.7 96.0 1026.4 0.0 S 0.0 0.0 14.0
07:05 -1.7 95.0 1026.6 0.0 S 0.0 0.0 16.0
07:15 -1.7 95.0 1026.6 0.0 S 0.0 0.0 19.0
07:20 -1.7 95.0 1026.7 0.0 S 0.0 0.0 19.0
07:25 -1.7 96.0 1026.7 0.0 S 0.0 0.0 21.0
07:30 -1.6 96.0 1026.7 0.0 S 0.0 0.0 23.0
07:35 -1.3 96.0 1026.8 0.0 S 0.0 0.0 25.0
07:40 -1.3 96.0 1026.9 0.0 S 0.0 0.0 26.0
07:45 -1.2 96.0 1026.9 0.0 S 0.0 0.0 28.0
07:50 -1.1 96.0 1026.8 0.0 S 0.0 0.0 30.0
07:55 -0.9 96.0 1026.9 0.0 S 0.0 0.0 32.0
08:00 -0.9 96.0 1026.9 0.0 S 0.0 0.0 37.0
08:05 -0.8 96.0 1027.0 0.0 S 0.0 0.0 44.0
08:05 -0.8 96.0 1026.9 0.0 S 0.0 0.0 53.0
Máxima 1.3 96.0 1028.3 0.0 S 3.2 0.0 53.0
Mínima -1.8 94.0 1026.3
Total 0.0